Back to catalog

STARLINK-36305

AliveCommunicationsVLEO
NORAD 68189·PAYLOAD·🇺🇸 United States

Launched Mar 14, 2026 from Vandenberg Space Force Base

Loading…

Next Passes (next 24 hours)

TLE

FreshSource: CelesTrak SupGP

Epoch: Sep 14, 2026, 21:25 UTC

1 68189C 26050Y   26257.89284722 -.00023964  00000+0 -70815-3 0  2575
2 68189  53.1577 104.2776 0001329  86.5643 226.2978 15.34397110    17

Track STARLINK-36305 in real time with AllMySat

Download on the App Store